2018-096AC (43745 NORAD) Tracking and Keplerian Element Data

This shows tracking and keplerian element data for the satellite.

Feedback or suggestion? Click here.




ElementValue
Catalog43745
Name2018-096AC
Epoch Orbit173
Epoch Day344.52131113
Epoch Year2018
RAAN49.5338
Inclination97.4836
Eccentricity0.001982
Argument of Perigee287.9562
Mean Anonmoly180.3701
Mean Motion15.26586416
Decay Rate1.824E-05
L11 43745U 18096AC 18344.52131113 .00001824 00000-0 72256-4 0 9995
L22 43745 97.4836 49.5338 0019820 287.9562 180.3701 15.26586416 1738

Live tracking and technical data element details for 2018-096AC (NORAD 43745). 2018-096AC can be tracked NOW for your location showing map with azimuth and elevation plus other details from your city location.

Track the satellite on the map from your city or location and see movement details for azimuth, elevation, latitude, longitude, range, height, and movement on the map or in text.







IsCatalogInMostPopularTable: catalog: 43745, numindb: 6
Update: records affected: 1



GetName: 43745 2018-096AC

Hit Count: updated at: Tue, 11 Dec 2018 02:26:58 GMT